Hourly Data Report for December 29, 2019

EUREKA CLIMATE
NUNAVUT
Current Station Operator: ECCC - MSC

79°59'21.000" N
85°56'02.000" W
10.00 m
2401199
71613
NEK

Download Data

Hourly Data (December 2019)
Hourly Data Report for December 29, 2019
TIME
LST
Temp Definition
°C
Dew Point Definition
°C
Rel Hum Definition
%
Precip. Amount Definition
mm

Wind Dir Definition
10's deg

Wind Spd Definition
km/h
Visibility Definition
km
Stn Press Definition
kPa
Hmdx Definition


Wind Chill Definition


Weather Definition


00:00 -15.8 -17.0 91 0.0 14 26   99.00   -26 LegendNANA
01:00 -15.7 -16.9 90 0.0 15 23   98.94   -26 LegendNANA
02:00 -17.3 -18.7 89 0.0 18 28   98.91   -29 LegendNANA
03:00 -19.4 -21.0 87 0.2 19 29   98.88   -32 LegendNANA
04:00 -20.5 -22.2 86 0.0 18 40   98.87   -35 LegendNANA
05:00 -22.3 -24.3 84 0.0 14 31   99.02   -36 LegendNANA
06:00 -24.0 -26.1 83 0.0 14 30   99.09   -38 LegendNANA
07:00 -24.6 -26.7 82 0.0 15 35   99.12   -39 LegendNANA
08:00 -25.1 -27.3 82 0.0 16 33   99.09   -40 LegendNANA
09:00 -23.4 -25.4 84 0.0 24 7   99.13   -30 LegendNANA
10:00 -27.3 -29.8 79 0.0 17 45   99.20   -45 LegendNANA
11:00 -28.4 -31.0 79 0.0 18 34   99.25   -44 LegendNANA
12:00 -29.1 -31.8 78 0.2 17 32   99.33   -45 LegendNANA
13:00 -30.4 -33.1 77 0.0 17 34   99.43   -47 LegendNANA
14:00 -30.8 -33.7 76 0.0 16 26   99.48   -46 LegendNANA
15:00 -31.3 -34.3 75 0.0 17 30   99.48   -47 LegendNANA
16:00 -31.3 -34.2 76 0.0 17 26   99.48   -46 LegendNANA
17:00 -31.2 -34.1 76 0.0 16 10   99.52   -41 LegendNANA
18:00 -30.8 -33.7 76 0.0 12 14   99.49   -42 LegendNANA
19:00 -30.4 -33.2 76 0.0 15 25   99.44   -45 LegendNANA
20:00 -30.1 -33.0 76 0.0 15 24   99.42   -44 LegendNANA
21:00 -30.4 -33.2 76 0.0 17 30   99.42   -46 LegendNANA
22:00 -30.4 -33.3 76 0.0 16 31   99.38   -46 LegendNANA
23:00 -30.6 -33.7 75 0.0 15 39   99.33   -48 LegendNANA

Notes on Data Quality.

Legend

  • E = Estimated
  • M = Missing
  • NA = Not Available*
  • [empty] = Indicates an unobserved value
Date modified: